Flag for United Kingdom

Past Weather in Market Harborough, England, United Kingdom — Yesterday and Last 2 Weeks

Now
49 °F

Cool.


Feels Like: 44 °F
Forecast: 62 / 41 °F
Wind: 13 mph from North

Location: Church Lawford
Current Time: Sep 27, 2020 at 6:06:54 am
Latest Report: Sep 27, 2020 at 5:00 am
Visibility: 12 mi
Pressure29.95 "Hg
Humidity: 71%
Dew Point: 40 °F
Location of Market HarboroughLocation

Past Weather in Market Harborough — Graph

°F

Market Harborough Temperature Yesterday

Maximum temperature yesterday: 54 °F (at 1:00 pm)
Minimum temperature yesterday: 41 °F (at 7:00 am)
Average temperature yesterday: 48 °F

High & Low Weather Summary for the Past Weeks

 TemperatureHumidityPressure
High85 °F (Sep 15, 3:00 pm)100% (Sep 14, 9:00 am)30.45 "Hg (Sep 14, 9:00 am)
Low41 °F (Sep 26, 7:00 am)33% (Sep 22, 2:00 pm)29.32 "Hg (Sep 24, 8:00 am)
Average57 °F78%29.99 "Hg
* Reported Sep 12 5:00 am — Sep 27 5:00 am, Market Harborough. Weather by CustomWeather, © 2020

Note: Actual official high and low records may vary slightly from our data, if they occured in-between our weather recording intervals... More about our weather records

Market Harborough Weather History for the Previous 24 Hours

Scroll right to see more
 ConditionsComfort  
Time TempWeatherWind HumidityBarometerVisibility
5:00 am
Sun, Sep 27
49 °FCool.13 mph71%29.95 "Hg12 mi
4:00 am49 °FCool.14 mph69%29.96 "Hg9 mi
3:00 am49 °FCool.13 mph69%29.96 "Hg15 mi
2:00 am49 °FCool.13 mph70%29.97 "Hg17 mi
1:00 am50 °FCool.12 mph69%29.97 "Hg16 mi
12:00 am50 °FCool.12 mph70%29.98 "Hg15 mi
11:00 pm
Sat, Sep 26
51 °FCool.14 mph67%29.97 "Hg19 mi
10:00 pm50 °FCool.13 mph70%29.97 "Hg10 mi
9:00 pm51 °FCool.14 mph69%29.97 "Hg18 mi
8:00 pm51 °FCool.10 mph72%29.96 "Hg19 mi
7:00 pm51 °FCool.13 mph70%29.95 "Hg28 mi
6:00 pm52 °FCool.14 mph68%29.94 "Hg19 mi
5:00 pm52 °FCool.18 mph67%29.93 "Hg25 mi
4:00 pm52 °FCool.13 mph64%29.93 "Hg28 mi
3:00 pm52 °FCool.15 mph60%29.91 "Hg22 mi
2:00 pm53 °FRain showers. Cloudy.18 mph62%29.90 "Hg11 mi
1:00 pm54 °FCool.16 mph57%29.90 "Hg19 mi
12:00 pm51 °FCool.16 mph58%29.90 "Hg31 mi
11:00 am49 °FCool.16 mph63%29.90 "Hg28 mi
10:00 am47 °FCool.16 mph64%29.90 "Hg22 mi
9:00 am45 °FQuite cool.14 mph67%29.90 "Hg28 mi
8:00 am42 °FQuite cool.10 mph72%29.89 "Hg28 mi
7:00 am41 °FQuite cool.8 mph77%29.88 "Hg25 mi
6:00 am42 °FQuite cool.8 mph78%29.88 "Hg25 mi
Weather by CustomWeather, © 2020

See weather overview